Weather History for Shelby, NC

Change the Weather History Date:

Thursday, January 9, 2014

  Actual Average (KHKY) Record (KHKY)
Temperature  
Mean Temperature 34 °F -  
Max Temperature 49 °F 43 °F 71 °F (1949)
Min Temperature 20 °F 26 °F 3 °F (1970)
Degree Days  
Heating Degree Days 31    
Moisture  
Dew Point 15 °F    
Average Humidity 49    
Maximum Humidity 85    
Minimum Humidity 21    
Precipitation  
Precipitation 0.00 in - - ()
Sea Level Pressure  
Sea Level Pressure 30.48 in    
Wind  
Wind Speed 1 mph (NNE)    
Max Wind Speed 6 mph    
Max Gust Speed -    
Visibility 10 miles    
Events Rain    
Averages and records for this station are not official NWS values.
T = Trace of Precipitation, MM = Missing Value Source: NWS Daily Summary

Daily Weather History Graph

Daily Weather History Graph

Search for Another Location

Airport:

Trip Planner

Search our weather history database for the weather conditions in past years. The results will help you decide how hot, cold, wet, or windy it might be!

Date:

Astronomy

Jan. 09, 2014 Rise Set
Actual Time 7:35 AM EST 5:31 PM EST
Civil Twilight 7:07 AM EST 5:59 PM EST
Nautical Twilight 6:36 AM EST 6:31 PM EST
Astronomical Twilight 6:05 AM EST 7:01 PM EST
Moon 12:53 PM EST (1/9) 1:47 AM EST (1/9)
Length of Visible Light 10h 52m
Length of Day
9h 56m
Waxing Gibbous, 66% of the Moon is Illuminated
Jan 9
Waxing Gibbous
Jan 15
Full
Jan 24
Last Quarter
Jan 30
New
Feb 6
First Quarter

Hourly Weather History & Observations

Time (EST) Temp. Windchill Dew Point Humidity Pressure Visibility Wind Dir Wind Speed Gust Speed Precip Events Conditions
12:15 AM 25.3 °F - 14.7 °F 64% 30.49 in 10.0 mi Calm Calm - N/A   Clear
12:35 AM 26.1 °F - 14.5 °F 62% 30.49 in 10.0 mi Calm Calm - N/A   Clear
12:55 AM 25.7 °F - 15.1 °F 64% 30.49 in 10.0 mi Calm Calm - N/A   Clear
1:15 AM 25.3 °F 21.1 °F 14.9 °F 65% 30.47 in 10.0 mi ENE 3.5 mph - N/A   Clear
1:35 AM 24.6 °F 18.8 °F 15.6 °F 69% 30.47 in 10.0 mi NNE 4.6 mph - N/A   Clear
1:55 AM 23.5 °F 19.1 °F 16.9 °F 76% 30.49 in 10.0 mi WNW 3.5 mph - N/A   Clear
2:15 AM 25.7 °F - 14.7 °F 63% 30.49 in 10.0 mi Calm Calm - N/A   Clear
2:35 AM 25.5 °F 21.3 °F 15.8 °F 67% 30.48 in 10.0 mi NE 3.5 mph - N/A   Clear
2:55 AM 24.3 °F 19.9 °F 16.7 °F 73% 30.48 in 10.0 mi NNE 3.5 mph - N/A   Clear
3:15 AM 25.2 °F 19.5 °F 17.1 °F 71% 30.48 in 10.0 mi NE 4.6 mph - N/A   Clear
3:35 AM 24.4 °F 20.1 °F 18.1 °F 77% 30.48 in 10.0 mi North 3.5 mph - N/A   Clear
3:55 AM 25.2 °F 20.9 °F 16.2 °F 69% 30.47 in 10.0 mi NE 3.5 mph - N/A   Clear
4:15 AM 25.0 °F 20.7 °F 16.7 °F 71% 30.48 in 10.0 mi NE 3.5 mph - N/A   Clear
4:35 AM 23.9 °F - 17.6 °F 77% 30.48 in 10.0 mi Calm Calm - N/A   Clear
4:55 AM 24.3 °F - 17.1 °F 74% 30.48 in 10.0 mi Calm Calm - N/A   Clear
5:15 AM 23.9 °F - 17.6 °F 77% 30.48 in 10.0 mi Calm Calm - N/A   Clear
5:35 AM 25.2 °F - 16.5 °F 70% 30.49 in 10.0 mi Calm Calm - N/A   Clear
5:55 AM 23.5 °F 19.1 °F 16.9 °F 76% 30.48 in 10.0 mi NE 3.5 mph - N/A   Clear
6:15 AM 23.5 °F - 17.6 °F 78% 30.48 in 10.0 mi Calm Calm - N/A   Clear
6:35 AM 21.9 °F - 16.7 °F 80% 30.48 in 10.0 mi Calm Calm - N/A   Clear
6:55 AM 21.0 °F - 17.1 °F 85% 30.48 in 10.0 mi Calm Calm - N/A   Clear
7:15 AM 20.3 °F - 16.5 °F 85% 30.49 in 10.0 mi Calm Calm - N/A   Clear
7:35 AM 21.9 °F - 16.7 °F 80% 30.49 in 10.0 mi Calm Calm - N/A   Clear
7:55 AM 21.4 °F - 16.7 °F 82% 30.51 in 10.0 mi Calm Calm - N/A   Clear
8:15 AM 22.1 °F - 16.9 °F 80% 30.51 in 10.0 mi Calm Calm - N/A   Clear
8:35 AM 23.7 °F - 18.5 °F 80% 30.52 in 10.0 mi Calm Calm - N/A   Clear
8:55 AM 25.3 °F - 18.3 °F 75% 30.53 in 10.0 mi Calm Calm - N/A   Clear
9:15 AM 27.5 °F - 19.2 °F 71% 30.53 in 10.0 mi Calm Calm - N/A   Clear
9:35 AM 30.4 °F - 20.3 °F 66% 30.54 in 10.0 mi Calm Calm - N/A   Clear
9:55 AM 33.6 °F - 18.1 °F 53% 30.54 in 10.0 mi Calm Calm - N/A   Clear
10:15 AM 35.1 °F - 16.9 °F 48% 30.54 in 10.0 mi Calm Calm - N/A   Clear
10:35 AM 36.3 °F - 14.9 °F 42% 30.54 in 10.0 mi Calm Calm - N/A   Clear
10:55 AM 38.5 °F - 11.7 °F 33% 30.54 in 10.0 mi Calm Calm - N/A   Clear
11:15 AM 39.4 °F - 11.5 °F 32% 30.54 in 10.0 mi Calm Calm - N/A   Clear
11:35 AM 41.5 °F - 12.0 °F 30% 30.52 in 10.0 mi Calm Calm - N/A   Clear
11:55 AM 42.3 °F - 12.2 °F 29% 30.52 in 10.0 mi Calm Calm - N/A   Clear
12:15 PM 43.9 °F - 11.3 °F 27% 30.50 in 10.0 mi Calm Calm - N/A   Clear
12:35 PM 44.6 °F - 9.3 °F 24% 30.48 in 10.0 mi Calm Calm - N/A   Clear
12:55 PM 45.0 °F - 9.5 °F 24% 30.47 in 10.0 mi Calm Calm - N/A   Clear
1:15 PM 46.0 °F - 9.0 °F 22% 30.47 in 10.0 mi Calm Calm - N/A   Clear
1:35 PM 46.4 °F - 9.3 °F 22% 30.46 in 10.0 mi Calm Calm - N/A   Scattered Clouds
1:55 PM 47.5 °F - 9.0 °F 21% 30.45 in 10.0 mi Calm Calm - N/A   Mostly Cloudy
2:15 PM 47.3 °F - 10.0 °F 22% 30.44 in 10.0 mi North 3.5 mph - N/A   Overcast
2:35 PM 47.7 °F - 10.2 °F 22% 30.44 in 10.0 mi Calm Calm - N/A   Overcast
2:55 PM 47.8 °F - 11.1 °F 23% 30.43 in 10.0 mi Calm Calm - N/A   Overcast
3:35 PM 48.4 °F - 11.5 °F 23% 30.44 in 10.0 mi Calm Calm - N/A   Overcast
3:55 PM 48.7 °F - 12.6 °F 23% 30.45 in 10.0 mi Calm Calm - N/A   Overcast
4:15 PM 48.6 °F - 12.2 °F 23% 30.45 in 10.0 mi Calm Calm - N/A   Overcast
4:35 PM 48.6 °F - 13.1 °F 24% 30.45 in 10.0 mi Calm Calm - N/A   Overcast
4:55 PM 48.2 °F - 16.0 °F 28% 30.46 in 10.0 mi Calm Calm - N/A   Overcast
5:15 PM 47.7 °F - 14.4 °F 26% 30.46 in 10.0 mi North 3.5 mph - N/A   Overcast
6:35 PM 46.0 °F 44.8 °F 15.8 °F 30% 30.46 in 10.0 mi North 3.5 mph - N/A   Overcast
6:55 PM 45.3 °F 42.3 °F 16.7 °F 32% 30.46 in 10.0 mi NE 5.8 mph - N/A   Overcast
7:15 PM 45.0 °F 43.5 °F 16.0 °F 31% 30.47 in 10.0 mi NW 3.5 mph - N/A   Overcast
7:35 PM 45.0 °F 43.5 °F 15.8 °F 31% 30.47 in 10.0 mi North 3.5 mph - N/A   Overcast
7:55 PM 44.6 °F - 16.0 °F 32% 30.48 in 10.0 mi Calm Calm - N/A   Overcast
8:15 PM 44.4 °F 42.9 °F 15.8 °F 32% 30.48 in 10.0 mi North 3.5 mph - N/A   Overcast
8:35 PM 44.1 °F 41.5 °F 15.8 °F 32% 30.48 in 10.0 mi NNE 4.6 mph - N/A   Overcast
8:55 PM 42.1 °F 38.4 °F 17.2 °F 37% 30.46 in 10.0 mi NE 5.8 mph - N/A   Overcast
9:15 PM 42.4 °F 40.7 °F 17.1 °F 36% 30.47 in 10.0 mi NNE 3.5 mph - N/A   Overcast
9:35 PM 42.8 °F 40.1 °F 15.4 °F 33% 30.47 in 10.0 mi North 4.6 mph - N/A   Overcast
9:55 PM 43.7 °F 41.1 °F 14.7 °F 31% 30.47 in 10.0 mi North 4.6 mph - N/A   Overcast
10:15 PM 43.7 °F 40.3 °F 14.5 °F 31% 30.46 in 10.0 mi North 5.8 mph - N/A   Overcast
10:35 PM 43.7 °F 42.1 °F 14.2 °F 30% 30.47 in 10.0 mi North 3.5 mph - N/A   Overcast
10:55 PM 43.2 °F 40.5 °F 15.4 °F 33% 30.46 in 10.0 mi NNE 4.6 mph - N/A   Overcast
11:15 PM 43.5 °F 40.9 °F 13.5 °F 30% 30.46 in 10.0 mi North 4.6 mph - N/A   Overcast
11:35 PM 42.4 °F 40.7 °F 17.4 °F 37% 30.46 in 10.0 mi NNE 3.5 mph - N/A Rain Light Rain
11:55 PM 41.0 °F 39.0 °F 22.6 °F 48% 30.45 in 10.0 mi North 3.5 mph - N/A   Drizzle